                ,  0.290,  0.386,  0.483,  0.580,  0.676,  0.773,  0.869,  0.966,  1.063,  1.159,  1.256,  1.352,  1.449,  1.545,  1.642,  1.739,  1.835,  1.932,  2.028,  2.125,  2.222,  2.318,  2.415,  2.511,  2.608,  2.705,  2.801,  2.898,  2.994,  3.091,  3.188,  3.284,  3.381,  3.477,  3.574,  3.671,  3.767,  3.864,  3.960,  4.057,  4.153,  4.250,  4.347,  4.443,  4.540,  4.636,  4.733,  4.830,  4.926,  5.023,  5.119,  5.216,  5.313,  5.409,  5.506,  5.602,  5.699,  5.796
2000/10/19 00:00,    0.7,  999.0,    0.3,    0.3,  999.0,  999.0,   -0.1,  999.0,    0.3,  999.0,  999.0,  999.0,  999.0,  999.0,  999.0,  999.0,  999.0,  999.0,  999.0,  999.0,  999.0,  999.0,  999.0,  999.0,  999.0,  999.0,  999.0,  999.0,  999.0,  999.0,  999.0,  999.0,  999.0,  999.0,  999.0,  999.0,  999.0,  999.0,  999.0,    1.1,    0.5,  999.0,  999.0,  999.0,    1.1,  999.0,  999.0,  999.0,  999.0,  999.0,  999.0,  999.0,  999.0,  999.0,    0.7,  999.0,    0.6,  999.0
2000/10/19 00:10,    0.7,    1.5,   14.5,    0.9,  999.0,   41.9,    1.1,    0.8,    1.2,   21.3,    0.7,  999.0,  999.0,    0.6,  999.0,   11.7,    0.7,  999.0,  999.0,    0.8,  999.0,   12.3,  999.0,    2.1,  999.0,  999.0,  999.0,    0.6,  999.0,  999.0,  999.0,  999.0,    0.1,  999.0,  999.0,  999.0,  999.0,  999.0,  999.0,  999.0,    1.0,    0.9,  999.0,  999.0,   -0.0,  999.0,  999.0,   20.3,  999.0,  999.0,  999.0,    0.8,  999.0,    0.1,   -0.3,    0.5,  999.0,    1.2
2000/10/19 00:20,    0.7,  999.0,    0.9,    0.7,  999.0,  999.0,    1.3,    0.8,    0.4,    0.9,    1.2,    0.5,    0.1,    0.8,  999.0,  999.0,    1.0,  999.0,  999.0,    0.8,    0.7,  999.0,  999.0,    0.5,  999.0,    0.9,  999.0,    0.6,    0.8,    0.8,  999.0,  999.0,    0.6,    0.9,  999.0,  999.0,    0.8,    0.9,  999.0,    0.8,  999.0,    0.6,    0.8,    0.4,    0.8,  999.0,  999.0,  999.0,    0.9,    0.2,    0.2,    0.6,    0.4,    1.0,    0.3,    1.5,    0.0,    1.0
2000/10/19 00:30,    0.7,  999.0,    0.9,    0.8,    0.9,    1.2,    1.3,    0.5,    0.9,    0.7,    1.2,    0.9,    0.2,    0.7,    1.0,    1.2,    0.7,    0.8,    0.6,    1.0,    1.0,    0.3,  999.0,  999.0,    1.3,    0.7,    0.4,    0.4,    1.2,    0.3,    0.5,    0.4,    0.3,    0.6,  999.0,    0.8,    1.3,    0.8,    1.2,    1.1,    0.6,    1.2,    0.3,    0.7,    0.7,    0.9,  999.0,    0.4,  999.0,    0.7,    0.4,    1.1,    0.8,    0.6,    0.7,    0.7,    0.3,    0.3
2000/10/19 00:40,    0.7,    1.0,  999.0,    1.1,    1.2,  999.0,   -0.0,    0.2,    0.1,    0.1,    0.3,  999.0,    0.5,    0.5,    0.9,  999.0,    1.1,  999.0,    0.7,    0.4,    1.2,    1.0,    1.2,    0.7,    0.6,    1.5,    0.8,    0.6,    0.7,    0.6,    0.7,    0.7,    0.4,    0.9,    0.7,    0.8,    0.6,    0.1,    0.3,    0.5,    0.8,    1.0,    0.9,    0.8,    0.9,    0.9,    0.3,    1.0,    0.6,    0.6,   -0.1,    0.7,    0.2,    0.9,    1.3,  999.0,    0.8,    1.4
2000/10/19 00:50,    0.7,    0.7,    0.5,    0.7,   -0.0,    1.5,    0.4,    3.1,    1.0,    0.5,    0.8,    0.5,    0.6,    1.2,    0.6,    0.9,    0.9,    1.1,    0.4,    0.2,    0.6,    0.8,    1.2,    0.9,    0.9,    0.7,    0.5,  999.0,    0.6,    0.6,    0.7,    0.8,    0.9,    0.1,    0.8,    0.3,  999.0,    0.9,    0.7,    0.7,    1.3,    1.2,    0.8,    0.9,    0.4,    0.5,    0.3,    0.4,    0.2,    0.7,   -0.2,    0.6,    0.9,    0.5,    0.3,    0.7,    0.8,  999.0
2000/10/19 01:00,    0.7,    0.8,    0.6,    0.8,    0.8,    0.4,    0.1,    0.4,    0.7,    0.8,    0.4,    0.9,    0.6,    0.9,    1.1,    0.0,    0.6,    0.7,  999.0,    0.9,    0.3,    0.8,    0.3,    0.7,    0.1,    0.3,   -0.1,    0.2,    0.2,    0.6,    0.1,    0.7,    0.5,    0.4,    0.8,    0.9,    0.8,    1.2,    1.2,    0.6,    1.1,    0.9,    0.6,    1.1,    1.1,  999.0,    0.8,    0.9,    1.5,    0.6,  999.0,    0.9,    0.4,  999.0,  999.0,    0.3,    0.6,    0.5
2000/10/19 01:10,    0.7,    0.9,    0.8,    0.7,    0.9,  999.0,    0.7,    0.7,    0.8,    0.8,    0.7,    0.5,    0.7,    0.7,    0.8,    0.7,    1.3,    1.2,    0.6,    0.9,    0.8,    1.0,    0.5,  999.0,    0.5,    0.6,    1.5,    0.7,    0.3,    0.4,    0.8,    0.5,    0.6,    0.4,    1.9,    0.5,  999.0,    0.8,    1.2,    0.8,  999.0,    0.9,    0.6,    1.5,    1.0,    0.9,    0.7,    0.7,    0.6,    0.4,    0.8,    0.4,    0.5,    0.2,    0.1,    1.0,    0.2,  999.0
2000/10/19 01:20,  999.0,  999.0,   41.7,   41.3,  999.0,  999.0,   41.7,   41.3,   41.8,   41.5,   40.8,   41.2,  999.0,  999.0,  999.0,  999.0,  999.0,  999.0,  999.0,   41.4,  999.0,  999.0,   41.5,  999.0,  999.0,  999.0,  999.0,  999.0,   41.3,  999.0,   41.2,  999.0,   41.6,   41.9,   41.4,   41.7,  999.0,  999.0,   41.9,  999.0,  999.0,  999.0,  999.0,  999.0,  999.0,  999.0,   41.6,  999.0,   41.8,  999.0,   42.0,  999.0,   41.5,   41.2,  999.0,  999.0,  999.0,  999.0
2000/10/19 01:30,    0.8,    1.2,    0.7,  999.0,    0.1,  999.0,  999.0,    0.6,  999.0,    0.7,  999.0,  999.0,  999.0,  999.0,    1.8,    1.0,    0.7,  999.0,  999.0,    1.0,  999.0,    0.0,    0.5,  999.0,  999.0,    0.9,  999.0,  999.0,    0.9,  999.0,  999.0,  999.0,  999.0,  999.0,  999.0,    1.3,    1.1,  999.0,  999.0,  999.0,  999.0,  999.0,  999.0,  999.0,  999.0,    0.6,  999.0,    1.1,    2.2,  999.0,    7.7,  999.0,   39.6,  999.0,   28.0,   33.4,  999.0,   41.8
2000/10/19 01:40,  999.0,  999.0,  999.0,  999.0,  999.0,  999.0,  999.0,  999.0,  999.0,  999.0,  999.0,  999.0,  999.0,  999.0,  999.0,  999.0,  999.0,  999.0,  999.0,  999.0,  999.0,  999.0,  999.0,  999.0,  999.0,  999.0,  999.0,  999.0,  999.0,  999.0,  999.0,  999.0,  999.0,  999.0,  999.0,  999.0,  999.0,  999.0,  999.0,  999.0,  999.0,  999.0,  999.0,  999.0,  999.0,    0.7,    0.4,  999.0,    0.3,  999.0,  999.0,  999.0,  999.0,  999.0,  999.0,  999.0,  999.0,  999.0
2000/10/19 01:50,    0.8,    0.8,    1.4,    1.1,  999.0,    0.7,  999.0,  999.0,    0.3,    0.3,    0.6,    0.7,    0.6,    0.5,    0.7,    0.7,    1.0,    0.8,    1.0,    0.5,  999.0,    1.0,    1.0,    1.5,    1.5,  999.0,    1.1,  999.0,    0.3,    0.4,    0.1,    0.9,    0.9,    0.7,    0.8,    0.2,  999.0,    0.5,    1.2,    1.2,    0.9,   -0.2,   -0.1,    0.8,  999.0,  999.0,    0.9,    1.8,    1.3,    0.9,    0.4,   -0.1,    0.7,    0.6,    1.0,    1.1,    0.8,  999.0
2000/10/19 02:00,  -20.7,    0.6,  999.0,    0.3,  999.0,  999.0,    0.9,  999.0,    0.5,  999.0,    1.3,    1.1,  999.0,  999.0,   -0.0,    0.2,  999.0,  999.0,  999.0,    0.7,  999.0,    0.8,    0.8,    0.2,    0.7,    0.6,    0.1,  999.0,  999.0,  999.0,  999.0,    0.1,    0.4,    1.7,  999.0,    1.3,  999.0,  999.0,    0.6,  999.0,  999.0,    1.3,  999.0,  999.0,    0.7,  999.0,  999.0,    0.5,    1.0,    0.5,  999.0,  999.0,  999.0,    1.5,    1.3,  999.0,    0.7,    1.2
2000/10/19 02:10,  -41.7,    1.2,  999.0,    0.9,  999.0,  999.0,    0.2,    0.5,    0.7,    0.5,    0.9,    0.9,  999.0,    0.3,    0.2,  999.0,  999.0,  999.0,    0.6,    0.6,   -0.3,  999.0,  999.0,  999.0,    0.9,    1.0,  999.0,    0.4,  999.0,  999.0,    1.0,  999.0,  999.0,  999.0,  999.0,  999.0,  999.0,    0.2,  999.0,    1.4,  999.0,  999.0,  999.0,  999.0,  999.0,    1.3,  999.0,  999.0,  999.0,  999.0,  999.0,  999.0,  999.0,  999.0,  999.0,  999.0,  999.0,  999.0
2000/10/19 02:20,  -41.7,  999.0,  999.0,  999.0,  999.0,  999.0,  999.0,  999.0,  999.0,  999.0,  999.0,  999.0,  999.0,  999.0,  999.0,  999.0,   42.4,  999.0,  999.0,   41.9,  999.0,  999.0,   41.6,  999.0,  999.0,  999.0,   41.7,  999.0,  999.0,  999.0,  999.0,  999.0,   41.7,  999.0,  999.0,  999.0,  999.0,  999.0,   41.5,  999.0,   42.1,  999.0,  999.0,  999.0,  999.0,  999.0,  999.0,   41.4,  999.0,  999.0,  999.0,  999.0,  999.0,  999.0,  999.0,  999.0,  999.0,  999.0
2000/10/19 02:30,    0.7,    1.0,  999.0,  999.0,    0.2,    0.2,    0.3,    0.7,    0.5,    0.3,    0.5,    0.9,  999.0,    0.5,   -2.1,    0.8,    0.6,  999.0,    0.9,    0.5,    0.4,    0.9,    1.0,    1.1,    0.6,    0.3,    0.6,    0.3,    1.2,  999.0,   -0.2,    0.8,    0.3,    1.2,    1.2,    0.6,    0.8,    0.3,    1.2,    0.8,    1.1,    0.7,  999.0,  999.0,    0.3,    0.1,    0.9,    0.8,    0.7,    1.1,    1.1,    0.8,  999.0,    0.7,  999.0,    0.9,    0.5,    0.7
2000/10/19 02:40,    0.7,    0.3,    0.8,    1.0,    1.2,    0.3,    0.3,    0.9,    0.1,   -0.1,   -0.3,  999.0,    0.4,  999.0,    0.7,    1.4,    1.0,    1.2,    1.3,    1.2,    1.6,    0.7,    0.7,    0.6,    0.2,    1.0,    0.6,    0.6,  999.0,    1.0,    0.5,    0.9,    1.2,  999.0,    0.8,    1.2,    0.4,    0.8,    0.4,    0.7,    0.6,    0.9,    0.5,    0.4,  999.0,    1.0,    1.1,  999.0,    1.1,  999.0,    0.5,    1.2,    0.8,    0.6,    0.8,    1.1,    0.2,    0.6
2000/10/19 02:50,    0.7,    0.6,  999.0,   -0.6,   -0.6,   -0.3,  999.0,    0.9,  999.0,  999.0,    0.6,    1.1,    1.3,    1.3,  999.0,    0.6,  999.0,    0.5,    0.5,    0.4,   -0.7,    1.4,  999.0,    0.6,    0.3,   -0.1,  999.0,    0.8,    1.0,  999.0,    1.6,    1.4,   -0.1,    0.9,    0.4,    0.6,  999.0,    1.3,    0.3,    0.6,    0.9,    1.1,    0.9,    0.7,    0.5,  999.0,    0.9,    0.6,    0.6,    0.5,    0.6,    0.9,  999.0,    1.0,    0.4,    0.8,  999.0,    0.6
2000/10/19 03:00,    0.8,    1.2,    0.6,    0.6,    0.6,    0.9,    0.7,  999.0,    0.6,    0.2,    1.1,    1.0,    1.2,    0.6,   -0.1,    0.6,    0.5,  999.0,    0.3,    0.8,    0.5,    0.8,    0.7,  999.0,    0.4,    0.3,   -0.1,    0.2,    0.3,  999.0,    0.7,    0.7,    1.3,    0.4,    0.4,    0.4,    0.8,    0.5,    0.9,    0.6,    0.6,  999.0,    0.7,    0.5,  999.0,    1.0,    0.7,    1.1,    1.1,    0.5,    0.6,    0.9,    0.6,    0.8,    0.3,  999.0,    1.1,    0.8
2000/10/19 03:10,    0.7,    0.3,    0.3,  999.0,    0.2,    0.9,    0.8,    0.9,    0.8,    0.6,    0.3,  999.0,    1.4,    0.7,    0.5,    0.8,    0.8,    0.3,    0.7,    0.8,    0.6,    1.0,    0.3,    0.1,    0.6,    0.3,    0.6,    1.3,    0.1,    0.9,    0.9,    0.8,    0.7,    0.3,    0.7,    0.9,    1.1,    0.8,    0.4,    0.2,    1.0,    1.1,    0.5,    0.3,    0.4,  999.0,    0.5,    0.4,    0.7,    0.7,    1.1,    1.0,    0.8,    1.0,    0.6,    0.4,    0.8,    1.1
2000/10/19 03:20,    0.7,    0.1,    1.5,    0.4,    1.2,    1.0,   -0.4,    0.3,    0.5,    1.6,    0.8,    0.2,    1.5,    0.8,    0.7,    0.3,    0.9,    0.7,    0.4,    0.6,    0.3,    1.0,    0.7,    0.8,    0.4,    0.8,    0.5,    0.6,    1.2,    0.7,    0.6,    0.5,  999.0,    0.4,    1.3,    0.9,    0.8,    1.0,    0.4,    0.3,   -0.1,    1.4,    0.4,  999.0,  999.0,    0.6,    0.6,    0.8,    0.9,    0.6,    0.0,    0.8,    0.6,    0.5,    0.6,    1.0,    0.4,    0.7
2000/10/19 03:30,    0.8,    1.2,    0.3,    0.9,    1.2,    1.2,  999.0,    1.0,    0.9,    0.9,    0.7,  999.0,    0.4,    0.3,    0.9,    0.8,    0.8,    0.8,  999.0,    5.1,    4.9,  999.0,   10.2,   12.1,   14.4,   30.8,   17.6,   19.8,    0.8,    0.9,    0.2,    0.5,   20.9,    0.7,   21.2,   14.5,    0.5,    1.0,  999.0,   21.1,   21.5,   21.6,  999.0,    0.5,    0.7,    1.1,   14.3,    0.9,    0.8,   20.9,   42.1,  999.0,   20.9,    0.9,    1.0,    0.9,    0.8,   43.4
2000/10/19 03:40,    0.7,    0.9,    0.9,    1.1,    0.9,    1.0,    0.1,    0.6,    0.7,    0.2,    0.5,    0.6,    0.6,    1.0,    0.8,    1.0,    1.3,    1.2,    0.7,    0.5,    0.6,    0.9,    0.9,  999.0,    0.9,    0.2,  999.0,    1.0,  999.0,    1.5,    1.0,    0.9,    0.1,    1.3,    0.8,    1.1,  999.0,    0.2,    0.1,    0.4,    0.6,    0.5,    0.7,    0.9,    0.7,    0.8,    1.5,    1.1,    0.7,    0.7,    0.5,    1.1,    0.8,  999.0,    0.7,    0.5,    0.8,  999.0
2000/10/19 03:50,  999.0,  999.0,  999.0,  999.0,  999.0,  999.0,  999.0,  999.0,  999.0,  999.0,  999.0,  999.0,  999.0,  999.0,  999.0,  999.0,  999.0,  999.0,  999.0,  999.0,  999.0,  999.0,  999.0,  999.0,  999.0,  999.0,  999.0,  999.0,  999.0,  999.0,  999.0,  999.0,  999.0,  999.0,  999.0,  999.0,  999.0,  999.0,  999.0,  999.0,  999.0,  999.0,  999.0,  999.0,  999.0,  999.0,  999.0,  999.0,  999.0,  999.0,  999.0,  999.0,  999.0,  999.0,  999.0,  999.0,  999.0,  999.0
2000/10/19 04:00,  999.0,  999.0,  999.0,  999.0,  999.0,  999.0,  999.0,  999.0,  999.0,  999.0,  999.0,  999.0,  999.0,  999.0,  999.0,  999.0,  999.0,  999.0,  999.0,  999.0,  999.0,  999.0,  999.0,  999.0,  999.0,  999.0,  999.0,  999.0,  999.0,  999.0,  999.0,  999.0,  999.0,  999.0,  999.0,  999.0,  999.0,  999.0,  999.0,  999.0,  999.0,  999.0,  999.0,  999.0,  999.0,  999.0,  999.0,  999.0,  999.0,  999.0,  999.0,  999.0,  999.0,  999.0,  999.0,  999.0,  999.0,  999.0
2000/10/19 04:10,  -41.8,  999.0,  999.0,  999.0,  999.0,  999.0,  999.0,  999.0,  999.0,  999.0,  999.0,  999.0,  999.0,  999.0,  999.0,  999.0,  999.0,  999.0,  999.0,  999.0,  999.0,  999.0,  999.0,  999.0,  999.0,  999.0,  999.0,  999.0,  999.0,  999.0,  999.0,  999.0,  999.0,  999.0,  999.0,  999.0,  999.0,  999.0,  999.0,  999.0,  999.0,  999.0,  999.0,  999.0,  999.0,  999.0,  999.0,  999.0,  999.0,  999.0,  999.0,   42.1,   42.6,  999.0,  999.0,  999.0,  999.0,  999.0
2000/10/19 04:20,  -41.5,  999.0,    1.4,  999.0,   41.4,   41.5,  999.0,    0.5,   41.8,  999.0,  999.0,   41.6,  999.0,    0.3,    0.7,   41.3,  999.0,   41.3,   41.3,   36.8,  999.0,  999.0,  999.0,  999.0,   27.3,   13.7,  999.0,  999.0,  999.0,   40.8,   13.3,    2.6,   12.1,   33.2,  999.0,  999.0,   31.0,  999.0,   41.2,  999.0,  999.0,    0.8,  999.0,  999.0,  999.0,  999.0,  999.0,  999.0,  999.0,  999.0,  999.0,  999.0,   41.1,  999.0,  999.0,   41.1,  999.0,  999.0
2000/10/19 04:30,    0.7,  999.0,    0.5,    8.7,    7.0,    1.7,    0.1,    0.6,    0.0,    0.1,  999.0,  999.0,    0.7,  999.0,  999.0,  999.0,  999.0,  999.0,  999.0,    1.6,  999.0,  999.0,  999.0,    0.0,    0.7,    1.0,  999.0,  999.0,  999.0,  999.0,    0.6,    0.2,    0.4,  999.0,  999.0,    0.3,  999.0,    1.0,  999.0,  999.0,  999.0,  999.0,    1.3,    1.2,  999.0,    0.6,  999.0,    1.3,  999.0,  999.0,  999.0,   -0.3,    0.8,  999.0,  999.0,  999.0,  999.0,  999.0
2000/10/19 04:40,  -41.7,  999.0,  -41.7,  999.0,  999.0,  999.0,  999.0,  999.0,  999.0,  999.0,  -42.6,  999.0,  999.0,  999.0,  999.0,  999.0,  999.0,  999.0,  999.0,  999.0,  999.0,  999.0,  999.0,  999.0,  999.0,  999.0,  999.0,  999.0,  999.0,  999.0,  999.0,  999.0,  999.0,  999.0,  999.0,  999.0,  999.0,  999.0,  999.0,  999.0,  999.0,  999.0,  999.0,  999.0,  999.0,  999.0,  -42.4,  999.0,  999.0,  999.0,  999.0,  999.0,  999.0,  999.0,  999.0,  999.0,  999.0,  999.0
2000/10/19 04:50,   -0.7,  999.0,  999.0,  999.0,  999.0,  999.0,  999.0,  999.0,   -1.5,  999.0,   -0.9,  999.0,  999.0,  999.0,  999.0,  999.0,  999.0,  999.0,  999.0,  999.0,  999.0,  999.0,   -0.5,  999.0,  999.0,  999.0,  999.0,  999.0,  999.0,   -0.2,  999.0,  999.0,  999.0,  999.0,  999.0,  999.0,  999.0,  999.0,  999.0,  999.0,  999.0,  999.0,  999.0,  999.0,  999.0,  999.0,  999.0,  999.0,  999.0,  999.0,  999.0,  999.0,  999.0,  999.0,  -41.5,  999.0,  999.0,  999.0
2000/10/19 05:00,  999.0,  999.0,  999.0,  999.0,  999.0,  999.0,  999.0,  999.0,  999.0,  999.0,  999.0,  999.0,  999.0,  999.0,  999.0,  999.0,  999.0,  999.0,  999.0,  999.0,  999.0,  999.0,  999.0,  999.0,  999.0,  999.0,  999.0,  999.0,  999.0,  999.0,  999.0,  999.0,  999.0,  999.0,  999.0,  999.0,  999.0,  999.0,  999.0,  999.0,  999.0,  999.0,  999.0,  999.0,  999.0,  999.0,  999.0,  999.0,  999.0,  999.0,  999.0,  999.0,  999.0,  999.0,  999.0,  999.0,  999.0,  999.0
2000/10/19 05:10,   41.8,  999.0,  999.0,  999.0,  999.0,  999.0,  999.0,  999.0,  999.0,  999.0,  999.0,  999.0,  999.0,  999.0,  999.0,  999.0,  999.0,  999.0,  999.0,  999.0,  999.0,  999.0,  999.0,  999.0,  999.0,  999.0,  999.0,  999.0,  999.0,  999.0,  999.0,  999.0,  999.0,  999.0,  999.0,  999.0,  999.0,  999.0,  999.0,  999.0,  999.0,  999.0,  999.0,  999.0,  999.0,  999.0,  999.0,  999.0,  999.0,  999.0,  999.0,  999.0,  999.0,  999.0,  999.0,  999.0,  999.0,  999.0
2000/10/19 05:20,  999.0,  999.0,  999.0,  999.0,  999.0,  999.0,  999.0,  999.0,  999.0,  999.0,  999.0,  999.0,  999.0,  999.0,  999.0,  999.0,  999.0,  999.0,  999.0,  999.0,  999.0,  999.0,  999.0,  999.0,  999.0,  999.0,  999.0,  999.0,  999.0,  999.0,  999.0,  999.0,  999.0,  999.0,  999.0,  999.0,  999.0,  999.0,  999.0,  999.0,  999.0,  999.0,  999.0,  999.0,  999.0,  999.0,  999.0,  999.0,  999.0,  999.0,  999.0,  999.0,  999.0,  999.0,  999.0,  999.0,  999.0,  999.0
2000/10/19 05:30,    0.6,    0.7,  999.0,   -0.2,  999.0,    0.7,  999.0,    1.2,  999.0,  999.0,  999.0,  999.0,    0.5,  999.0,  999.0,  999.0,  999.0,  -41.8,  999.0,  999.0,  -37.3,  999.0,  999.0,  999.0,  999.0,  999.0,    0.4,  999.0,  999.0,  999.0,    0.9,    0.7,  999.0,  999.0,  999.0,  999.0,  999.0,  999.0,  999.0,   -1.1,  999.0,  999.0,  999.0,  999.0,  -20.9,  999.0,  999.0,  999.0,  999.0,  999.0,  999.0,  999.0,  999.0,  999.0,  999.0,  999.0,  999.0,  -41.5
2000/10/19 05:40,  999.0,  999.0,  999.0,  999.0,  999.0,  999.0,  999.0,  999.0,  999.0,  999.0,  999.0,    0.3,  999.0,  999.0,  999.0,  999.0,  999.0,  999.0,  999.0,  999.0,  999.0,  999.0,  999.0,  999.0,  999.0,  999.0,  999.0,  999.0,  999.0,  999.0,  999.0,  999.0,  999.0,  999.0,  999.0,  999.0,  999.0,  999.0,  999.0,  999.0,  999.0,  999.0,  999.0,  999.0,  999.0,  999.0,  999.0,  999.0,  999.0,  999.0,  999.0,  999.0,  999.0,  999.0,  999.0,  999.0,  999.0,  999.0
2000/10/19 05:50,   31.3,   31.0,  999.0,   42.1,   42.2,   41.9,   42.2,  999.0,   -0.5,    0.3,  999.0,   42.5,   42.1,  999.0,   42.4,   42.2,  999.0,  999.0,   42.8,  999.0,  999.0,  999.0,  999.0,  999.0,   41.8,  999.0,  999.0,   42.1,  999.0,  999.0,   42.3,   41.8,   42.0,   -0.9,   18.5,  999.0,  999.0,   41.5,  999.0,   -1.2,   20.8,    0.6,   42.0,  999.0,  999.0,   42.0,  999.0,   17.5,  999.0,    0.3,   39.6,   21.7,    0.6,  999.0,   -0.6,  999.0,   16.5,   -0.6
2000/10/19 06:00,   41.7,   41.9,  999.0,   41.9,   41.8,   41.9,  999.0,   41.7,  999.0,  999.0,  999.0,   41.9,   41.7,   42.3,   42.2,   41.9,   42.1,   41.7,   41.9,  999.0,   42.1,   41.5,  999.0,   41.9,   40.9,   41.3,   41.8,   41.4,   41.8,   41.8,   41.5,   41.3,   42.2,   41.8,   41.5,   42.1,   41.2,   42.1,   41.9,  999.0,   41.5,   42.4,  999.0,   42.5,   41.9,   42.2,   41.4,   41.4,   41.5,   41.9,   41.4,   42.2,   41.2,  999.0,  999.0,   42.7,   42.2,  999.0
2000/10/19 06:10,   41.9,   42.0,  999.0,   41.7,   21.4,   42.5,  999.0,  999.0,   41.8,   41.7,   42.5,   42.8,  999.0,   28.3,   42.5,   41.9,   41.6,   42.2,  999.0,   41.6,   41.8,   41.9,  999.0,   20.9,   21.8,   21.0,    1.7,   42.4,   42.4,   41.7,   42.2,   42.2,   42.2,   42.5,   42.6,   41.5,  999.0,  999.0,   41.8,  999.0,   42.1,  999.0,   41.9,  999.0,   41.9,   41.8,   41.8,   41.6,   41.9,   42.0,   41.9,   42.5,   42.3,   42.3,  999.0,  999.0,  999.0,  999.0
2000/10/19 06:20,   41.9,   41.6,   43.3,  999.0,   42.0,   42.0,  999.0,   41.8,   42.5,   42.4,   42.2,   42.2,   42.0,   41.5,   41.5,   41.9,   41.6,   42.0,   42.3,   41.8,   41.7,   41.8,   41.9,   42.0,  999.0,   41.8,   41.1,   41.9,   41.6,   42.2,   42.0,   42.3,   42.7,   41.9,   41.9,   42.1,   41.8,   42.2,   42.1,   41.9,   41.9,   41.9,   42.1,   42.1,   42.0,   41.8,  999.0,   41.0,   41.8,  999.0,   41.6,   41.5,   41.7,   41.8,   41.7,  999.0,   41.9,  999.0
2000/10/19 06:30,   41.9,   42.2,   42.1,   42.1,   42.5,   41.9,   42.4,  999.0,   42.4,   41.9,   42.8,   42.0,   42.2,   41.9,   42.6,   39.2,   37.6,   41.9,   35.9,   42.2,   39.4,   41.9,   35.1,   36.4,   41.9,   42.5,   42.1,   41.6,   37.3,   32.2,   31.7,   43.0,   28.7,   42.1,   41.9,   39.6,   42.5,   42.1,   31.7,   42.3,   31.6,   31.9,   41.5,   42.0,   42.2,   27.6,   26.1,   42.4,   42.2,   41.9,   40.7,   33.1,   39.6,   42.6,   28.9,   42.5,   28.4,   26.4
2000/10/19 06:40,   41.6,   41.6,   41.7,   41.4,   41.5,   41.8,   41.4,   41.7,   41.7,   41.7,   41.7,   41.4,   41.4,   41.3,  999.0,   41.4,   40.9,   41.7,   41.6,   41.5,   41.5,   41.7,   41.3,   41.3,   41.4,   41.3,   41.3,   41.2,   41.6,   41.4,   41.5,   41.3,   41.6,   41.5,   41.5,   41.8,   41.3,   41.5,   41.7,   41.6,   40.9,   41.6,   41.6,   41.6,   41.7,  999.0,   41.1,   41.4,   41.5,   41.6,   41.0,   41.5,   41.5,   41.3,   41.5,   41.3,   41.8,   41.6
2000/10/19 06:50,   41.7,   41.6,   41.4,   41.2,   41.4,   41.6,   41.7,   41.4,   41.9,   42.1,   41.9,   41.5,   42.0,   41.8,   41.9,   42.0,   41.9,   42.1,   41.9,   41.6,   41.5,   41.7,   41.4,   41.5,   41.5,   41.7,   41.6,  999.0,   41.4,   41.7,   42.1,   41.8,   41.1,   42.0,   41.8,   41.6,   41.7,   42.1,   41.6,   42.0,   42.3,   41.6,   41.8,   41.3,   41.6,   41.7,   41.6,   41.8,   41.6,   41.6,   41.5,   42.0,   41.7,   41.4,   41.5,   41.4,   41.5,   41.6
2000/10/19 07:00,   41.4,   41.2,   41.8,   41.3,   41.7,   42.2,   40.8,   41.3,   40.9,  999.0,  999.0,   41.3,   41.3,   41.0,   41.3,   41.5,   41.2,   41.5,   41.3,   41.3,   41.2,   41.2,   41.5,   41.5,   41.1,   41.1,   41.4,   41.3,   41.6,   41.4,   41.1,   41.1,   41.3,   40.8,   41.2,   41.2,   41.2,  999.0,   41.9,   41.5,   41.1,   41.3,   41.3,   40.9,   41.3,   41.4,   41.4,   41.3,   40.7,   41.2,   41.5,   41.0,   41.4,   41.6,   41.5,   41.3,   41.4,   41.0
2000/10/19 07:10,   41.8,   41.9,   41.2,   41.4,   42.2,   41.8,   41.7,  999.0,   42.1,   42.6,   41.6,   41.6,   41.7,   41.2,   42.5,   42.0,   42.5,   41.8,   41.9,  999.0,   41.1,   42.3,   41.5,   41.4,   42.0,   41.5,   40.9,   41.5,   41.4,   42.5,   41.4,   41.7,  999.0,   41.3,   41.8,   41.6,   42.6,   42.2,   41.7,   41.8,   42.2,   42.5,   41.6,   41.6,   41.6,   41.8,   41.5,   41.9,   41.6,   41.4,   42.1,   41.9,   42.0,   42.3,   42.5,   42.4,   42.1,  999.0
2000/10/19 07:20,   42.0,   41.5,   42.2,   41.8,   42.6,   42.0,   41.6,   42.1,  999.0,   42.0,   42.1,   41.6,  999.0,   42.2,   42.5,   42.3,   42.0,   41.6,   41.4,   42.3,   42.6,   41.4,   42.3,   41.9,   42.2,   41.9,   41.6,   42.1,   41.7,   41.7,   41.5,   41.5,   42.7,   42.3,   41.9,   41.8,   41.7,   42.1,   41.7,   41.8,   41.7,   42.3,   42.3,   42.0,   42.0,   41.8,   42.3,   41.9,   42.2,   41.7,   41.9,   41.8,   41.7,   41.7,   42.1,   42.0,   42.0,   41.9
2000/10/19 07:30,   41.8,   41.8,   41.8,   41.8,   41.9,   42.3,   41.9,   41.8,   41.9,   41.7,   41.9,   41.8,   42.0,   41.5,   41.9,   41.9,   42.5,   41.5,   41.7,  999.0,   41.7,   42.0,   41.6,   42.0,   42.1,   41.7,   42.0,   41.8,   42.2,  999.0,   42.2,   41.7,   41.5,   41.7,   42.4,   41.3,   41.3,   41.3,   41.7,  999.0,   41.6,   41.7,   41.9,   42.0,   41.9,   41.5,   41.6,   42.1,   41.8,   42.0,   41.9,   41.8,   42.0,  999.0,   41.6,   41.6,   41.2,   41.2
2000/10/19 07:40,   41.8,   41.8,   42.1,   42.3,   41.6,   41.7,   41.8,   42.1,   41.5,   40.9,   41.7,   41.8,   41.5,   41.6,   35.5,   30.9,   21.5,   28.2,   41.7,   29.1,   32.6,   42.0,   41.9,   41.7,   30.9,   21.7,  999.0,   41.9,   42.0,   41.6,   41.6,   42.2,   42.1,   41.9,   41.6,   42.0,   37.3,  999.0,   42.0,   31.6,   31.4,   42.3,   42.0,   36.3,   41.9,   42.3,   41.6,   41.6,   41.8,  999.0,   41.7,   41.5,   41.5,   41.2,   41.9,   42.2,   42.2,   41.6
2000/10/19 07:50,   41.9,   41.6,   41.8,   41.8,   41.7,   42.1,   41.8,   42.1,   42.0,   41.4,   41.7,  999.0,   41.8,   41.8,   41.7,   41.7,   42.1,   42.3,   41.6,   41.9,   41.8,   42.3,  999.0,   42.4,   42.0,   42.0,   41.4,   41.6,   41.8,   41.8,   41.7,   41.9,   42.2,   42.0,   42.2,   42.4,   41.7,   41.6,   41.4,   41.7,   41.9,   41.7,   41.4,   41.9,   41.9,  999.0,   42.3,   41.8,   41.8,   41.9,   41.8,   41.7,   41.7,   41.8,  999.0,   41.8,   42.0,   41.6
2000/10/19 08:00,   41.7,   41.7,   41.8,   41.4,   41.6,   41.5,  999.0,   41.1,   41.4,   41.8,   41.8,   39.6,   36.9,   29.3,   30.5,   21.4,   41.8,   32.3,   27.4,   41.8,   41.7,   42.8,   36.7,   32.0,   35.4,   39.8,   41.6,   42.8,   41.0,   41.0,   41.4,   41.9,   42.0,   20.7,   41.9,   27.4,   35.6,   42.1,   42.1,   41.5,   41.8,   21.5,   20.8,   42.4,   21.3,   28.4,   37.4,   42.4,   21.9,   20.7,   23.6,   33.6,   41.7,   41.0,   40.9,   21.2,   27.9,   40.7
2000/10/19 08:10,   42.0,   41.7,   41.9,  999.0,   41.6,   41.8,  999.0,   42.6,   42.9,   42.0,  999.0,  999.0,  999.0,   42.2,  999.0,   42.1,   41.6,   41.7,   42.0,   42.2,   41.9,  999.0,   42.4,   41.7,   42.1,   42.0,   42.0,   42.3,   41.6,   42.4,   42.0,   41.9,   41.8,   42.0,  999.0,   41.8,   41.4,   41.8,   42.1,   42.3,   42.0,   41.5,   41.8,   42.0,   42.4,   41.5,   42.1,   41.8,   42.0,   42.2,  999.0,   41.7,   41.9,   41.1,   42.0,   41.8,   41.6,   41.2
2000/10/19 08:20,   41.8,   42.1,   42.4,  999.0,   42.1,   41.5,  999.0,   41.6,   42.0,   41.5,   41.1,   41.9,   41.8,   41.6,  999.0,   42.2,   41.6,   41.9,   41.6,  999.0,   41.7,   41.6,   41.2,  999.0,  999.0,   42.7,  999.0,   41.4,  999.0,  999.0,   41.9,  999.0,   42.1,  999.0,  999.0,  999.0,   42.0,   42.1,  999.0,  999.0,  999.0,   41.8,  999.0,  999.0,  999.0,  999.0,   41.8,   22.5,   41.2,   41.7,   33.6,   21.1,   23.0,   23.7,  999.0,    1.2,   21.4,  999.0
2000/10/19 08:30,   41.8,   41.7,   41.6,   41.7,   42.0,   41.6,   42.1,   41.9,  999.0,  999.0,  999.0,   42.2,   42.2,   41.8,   41.3,   42.0,   41.5,  999.0,  999.0,   33.2,   33.8,   38.4,   20.0,   25.5,    2.1,   31.8,   41.1,  999.0,   40.7,    4.1,   39.2,  999.0,    8.3,   41.4,   41.6,   41.9,   41.8,  999.0,  999.0,  999.0,   20.8,  999.0,   35.8,   33.6,  999.0,   41.6,   27.8,   12.2,    3.2,   13.3,   21.3,   24.0,   12.5,   19.0,   12.3,    8.4,   12.5,   15.9
2000/10/19 08:40,   41.8,   39.1,   42.1,   41.6,   41.7,   42.3,   42.2,   41.4,   42.1,   41.6,   42.2,  999.0,   41.4,  999.0,  999.0,   41.7,   42.2,   41.3,   41.7,   41.9,   41.7,   42.0,   41.8,   42.0,   42.0,   41.5,   42.0,   42.7,   42.0,   42.1,   41.9,   41.8,   42.0,  999.0,  999.0,   41.9,   42.4,  999.0,   -4.9,  -17.2,   -0.9,  -15.5,  -21.3,  999.0,  999.0,  999.0,   41.3,  999.0,  999.0,  999.0,   42.1,  999.0,  999.0,  999.0,    2.0,   41.9,   31.6,   41.6
2000/10/19 08:50,   41.8,   41.8,   42.0,   41.6,   41.9,   41.4,   41.8,   41.7,   41.7,   42.0,   41.8,   41.8,   41.7,   42.4,   42.4,   42.1,   42.0,   41.1,   41.6,   41.7,   41.6,   41.7,   42.0,   41.6,   42.5,   41.9,   41.7,   41.8,   41.6,   41.9,   33.2,   22.5,   17.9,    5.6,   10.3,  999.0,  999.0,   -0.5,   -1.0,   -0.8,   -0.7,   -0.6,   -0.6,   -1.1,   -0.9,   -0.7,   -0.5,   -0.7,  999.0,  999.0,  999.0,  999.0,  999.0,   -0.6,   42.4,   42.4,  999.0,   42.4
2000/10/19 09:00,   41.9,   41.5,   41.2,   41.5,   41.5,   41.7,   42.1,   40.6,   41.6,  999.0,   41.8,   42.0,   41.8,   41.5,   41.7,   42.1,   41.9,   41.6,   42.5,   43.1,   41.6,   41.3,   41.2,   41.6,   42.0,   42.6,   42.1,   42.4,   42.0,  999.0,   41.7,   42.2,  999.0,  999.0,  999.0,  999.0,  999.0,  999.0,  999.0,  999.0,  -18.9,   -7.9,  -11.1,   -0.7,   -0.6,   -7.5,  -11.0,   -7.9,  999.0,  -13.5,  -11.3,   -0.6,   -1.8,   -8.4,   -0.2,  -14.6,  -11.9,  -13.2
2000/10/19 09:10,   35.6,   29.5,   29.8,   25.8,   28.3,   41.9,   36.5,   41.8,   38.4,   41.1,   41.7,   41.8,   41.8,   40.5,   41.6,   36.5,   31.6,   21.5,   31.5,   36.6,   41.5,   28.1,   28.7,   41.7,  999.0,   35.0,   42.0,  999.0,  999.0,    0.7,   18.1,   39.1,  999.0,  999.0,  999.0,  999.0,  999.0,  999.0,  999.0,  999.0,  999.0,   -1.0,  -11.2,   -6.7,   -9.0,  -18.8,   -0.1,   -0.5,   -0.3,   -0.3,   -0.3,   -0.9,   -0.4,   -2.5,  -25.5,  -11.2,   -0.9,   -0.8
2000/10/19 09:20,   41.8,   41.8,   41.6,   41.7,   41.7,   41.7,   41.8,   42.0,   42.2,   41.3,   41.8,   41.7,   41.8,   41.9,   41.9,   41.9,   41.3,   41.6,   41.2,   41.4,   41.5,   41.9,   41.6,   41.2,  999.0,  999.0,  999.0,  999.0,  999.0,  999.0,  999.0,  999.0,  999.0,  999.0,  999.0,  999.0,  -20.8,  999.0,  999.0,  -20.9,   -0.3,  -36.8,   -1.1,   -7.2,    0.0,   -0.9,   -0.6,   -1.1,   -0.2,   -0.5,   -0.6,   -0.7,   -1.0,   -0.6,  999.0,   -0.4,   -0.5,   -0.3
2000/10/19 09:30,   41.8,   41.8,   42.0,   41.9,   40.7,   40.4,   42.2,   38.9,   37.9,   33.9,   31.2,   37.1,   30.3,   26.4,   23.4,   21.1,   18.0,   15.8,   15.5,   21.9,    0.4,    1.0,    0.8,    0.8,    0.8,  999.0,   14.4,    0.7,   11.7,    0.4,  999.0,    0.4,    0.4,    0.7,    0.3,  999.0,  999.0,  -40.5,  999.0,  999.0,  999.0,  -41.9,  -42.2,  -41.6,  -41.9,  -41.8,  -41.7,  -41.9,  -41.9,  -41.9,  -42.0,  -42.2,  -41.9,  -41.9,  999.0,  -41.8,  -38.5,  -37.8
2000/10/19 09:40,    8.3,    0.7,    0.5,   12.8,    0.9,    1.0,   10.5,  -19.8,    0.7,    6.3,    2.5,    6.0,    0.6,    0.5,   12.6,    4.6,    9.8,   21.3,    5.3,    8.6,    0.3,    8.9,    0.6,    0.7,    0.4,    1.1,    0.9,   16.0,   21.1,    7.1,    5.2,    5.4,    2.3,    8.6,   10.4,    5.6,   20.5,    7.4,    8.7,   19.4,   10.8,   21.7,   18.6,   41.9,   42.4,   41.7,   21.6,   28.2,   27.9,   27.9,   42.1,   27.7,   21.3,   41.7,   21.1,   28.0,   28.3,   21.2
2000/10/19 09:50,    0.7,    0.9,    1.0,    0.9,    0.6,    0.4,    0.3,    0.5,    0.7,    0.5,    1.0,    0.7,    0.7,    0.4,    0.7,    0.1,    1.1,    0.7,    0.7,    0.9,    0.6,    0.5,    0.5,    0.9,    0.7,    0.7,    0.8,    0.9,    0.8,    1.2,    1.1,    1.0,    1.7,    4.1,    5.6,    5.2,    8.9,   11.2,    6.6,   19.3,   23.2,   24.9,   30.2,   33.2,   35.0,   42.1,   38.2,   19.0,   41.7,   29.5,   33.8,   41.6,   42.2,   42.0,   34.6,   35.5,   41.9,   22.2
2000/10/19 10:00,  -20.8,  -23.6,  -30.4,  -41.6,  -20.4,  -16.3,  -12.4,  -34.8,  -41.9,  -27.7,  -27.6,  -34.6,  -27.7,  -27.3,  -20.2,  -31.2,  -27.5,  -31.1,  -34.8,  -41.4,  -27.7,  -41.7,  -20.6,  -34.9,  -34.7,  -34.6,  -41.6,  -31.0,  -30.9,  -41.8,  -41.7,  -20.2,  -34.7,  -27.8,  -41.9,  -41.7,  -34.4,  -25.4,  -41.7,  -18.2,   18.5,   42.2,   41.9,   41.8,   21.3,    1.1,   42.1,   -0.0,   -6.3,    0.3,   -7.1,    0.8,    0.9,   21.3,   21.1,  -14.0,   21.9,    0.5
2000/10/19 10:10,  -41.8,  999.0,  -42.0,  -41.5,  -41.9,  -26.8,  -37.6,  -40.3,  -21.3,  -41.8,  -28.2,  -42.3,  -42.2,  -28.0,  -28.3,  -41.9,  -28.1,  -42.0,  -28.1,  999.0,  -28.0,  -28.3,  -28.2,  -28.2,  -21.0,  -42.1,  -28.1,  -21.1,  -42.1,  -10.8,  -21.0,  -21.1,  -42.1,  -28.4,  -20.8,  -21.3,  -21.2,  -27.6,  -41.3,  999.0,  999.0,  999.0,  999.0,  999.0,  999.0,  999.0,   27.6,  999.0,   22.3,  999.0,    6.7,   21.3,   11.0,  999.0,   -0.2,   10.7,    0.7,    0.5
2000/10/19 10:20,   39.6,   22.9,   25.1,   27.1,   29.1,   31.0,   33.0,   34.9,   36.4,   34.2,   36.5,   15.7,   39.9,   34.1,   31.2,   20.8,   20.7,   24.8,    2.9,   33.7,   20.4,   30.9,   -1.1,  999.0,   -1.6,   -0.6,   -1.1,   -2.2,   -1.0,   -6.8,   -5.9,   -1.2,   -0.5,   -0.8,   -0.9,   -0.3,  -28.5,  -15.1,  -15.7,  -12.4,  999.0,  -19.6,  -19.9,  -41.9,    9.1,  -14.2,    9.4,    6.5,    7.1,    1.1,    4.4,   11.7,    9.3,   22.0,   32.1,    0.8,    4.3,    0.7
2000/10/19 10:30,   20.2,   27.7,   28.3,   19.9,   22.2,   23.3,   32.3,   30.0,   20.3,   20.3,   20.6,  999.0,   41.8,  999.0,   42.1,   41.7,   20.6,    9.7,   41.4,   -0.5,    6.2,   -1.0,   -0.5,  999.0,   -0.9,   -0.9,   -0.6,   -0.5,   -4.2,   -4.8,   -5.8,   -6.1,   -0.7,   -7.6,   -8.0,   -0.6,  999.0,   -0.6,   -5.6,  999.0,  999.0,  -29.4,  999.0,  999.0,  999.0,   13.8,    5.8,   11.7,   10.6,    7.9,   -4.3,   30.1,    0.7,    1.1,    4.4,   14.1,   21.1,    2.1
2000/10/19 10:40,  -31.7,  -29.6,  -20.4,   -2.1,   -0.8,   -7.5,   -3.6,  -14.3,  -28.5,   -8.2,   -4.3,  -11.0,  -11.0,  -30.4,  -16.5,  -13.5,    9.8,   -7.3,  -11.1,   41.7,    1.7,   41.7,  999.0,    9.5,   20.1,   20.7,   12.2,   19.0,    4.3,  -10.2,  -10.3,   10.6,   21.4,   41.8,  -20.9,  -17.3,   21.5,  999.0,   18.0,  999.0,  999.0,    0.5,    0.7,    0.8,    0.5,    0.2,    0.9,    0.7,    0.8,    0.4,    1.0,  999.0,    0.8,    0.7,    0.8,    0.6,    0.8,    0.8
2000/10/19 10:50,  -36.4,  -34.3,  -24.3,  -26.5,  -14.7,   -9.5,   -7.2,   -1.7,   -0.6,   -0.8,   -0.8,   -0.8,   -0.6,  999.0,  999.0,  999.0,  999.0,    9.3,  999.0,   -0.8,  999.0,  999.0,  999.0,   -1.3,   -0.5,   -0.5,   -0.8,   -0.5,   -0.4,   -0.9,   -0.8,   -0.4,   -0.4,    0.1,    7.2,   20.7,    3.5,    9.7,    7.8,   10.8,  -10.7,  -13.2,    0.7,   -6.2,    0.7,    0.8,    5.3,    7.6,    2.5,   -4.4,   -3.7,   -0.1,   10.2,    0.8,    1.1,   20.7,    1.2,    0.8
2000/10/19 11:00,  -11.5,   -8.9,    0.9,   13.9,   19.8,   -1.0,   -0.7,   -0.4,   -0.5,   -0.9,   -0.6,   -0.5,   -1.3,   -0.6,   -0.9,   -0.5,   -0.9,   -0.6,   -0.7,   -0.7,   -1.1,   -1.2,   -0.3,   -0.9,  999.0,   -0.6,   -1.0,   -1.0,   -0.7,   -0.9,   -1.5,   -1.0,   -0.8,   16.6,   -5.2,    1.9,    4.4,    0.1,   -3.1,  -16.4,   -4.2,   -9.9,  -10.2,  -21.4,    0.9,   -9.1,    5.7,  -32.1,  -11.9,  -20.1,  -35.0,   -6.4,    0.7,    0.7,    0.6,    0.5,    0.7,    0.7
2000/10/19 11:10,  -28.6,  -14.9,  -22.2,   12.0,    3.2,   -9.5,   -0.7,   -0.6,    6.5,    3.6,   -0.8,   10.1,   -7.8,    6.3,    3.3,   21.3,    1.9,   -6.9,    3.2,    6.7,   -7.6,  -12.6,  -12.4,   13.4,   42.2,   21.1,    9.8,    6.9,   -0.9,   41.7,   42.2,   35.9,   35.7,   32.2,   26.3,    3.9,   31.6,  999.0,    0.5,    0.9,    0.5,    0.8,    0.6,    0.9,    1.1,    0.6,    0.8,    0.8,    0.8,    1.0,    0.7,    0.8,    0.6,    0.7,    1.0,    0.7,    0.7,    0.9
2000/10/19 11:20,  -32.7,  -22.6,  -12.8,   -3.1,   -0.6,   -0.6,   -0.7,   -0.8,   -0.5,   -0.6,   -0.9,   -1.0,   -0.6,   -0.4,   -0.7,   -0.7,   -0.4,   -0.8,   -0.6,   -0.9,   -0.7,   -0.8,   -0.9,   -0.3,   -0.6,   -0.5,   -0.5,   -0.6,   -0.8,   -0.8,   -0.6,  999.0,  999.0,  999.0,  999.0,  999.0,  999.0,  999.0,  999.0,  999.0,   13.2,   10.7,    7.3,    3.2,    1.0,    0.8,    0.6,    0.6,    0.9,    0.7,    1.1,    0.7,    0.7,  999.0,    0.6,    1.0,    0.5,    0.5
2000/10/19 11:30,  -26.8,  -26.6,  -16.7,    6.2,   -2.2,   -0.6,    9.9,   13.4,   -0.7,    6.3,    6.3,   -1.0,   -1.2,   13.6,   -0.7,    6.3,   20.5,    6.6,   -0.8,   14.0,    6.5,   -0.5,    6.7,    9.5,   13.4,   20.7,   -1.1,   -0.6,   20.4,   -3.6,  999.0,  999.0,  999.0,   35.5,  999.0,   19.6,   11.1,    3.4,    8.8,    1.1,    2.4,    1.2,    0.7,    1.0,    0.6,    0.8,    1.5,    0.9,    0.7,    0.8,    0.7,  -13.2,    0.8,    0.9,    0.7,    0.8,    0.6,    0.6
2000/10/19 11:40,  -33.2,  -24.4,  -19.2,   -6.5,   -1.0,   -0.5,   -0.6,   -0.5,   -0.7,   -0.6,   -0.7,   -0.7,   -0.7,   -0.8,   -0.8,   -0.8,   -0.9,   -0.7,   -1.0,   -0.8,   -0.6,   -0.6,   -1.0,   -0.8,   -0.9,   -1.3,   -1.0,  999.0,   -1.1,   -1.1,  999.0,  999.0,  999.0,  999.0,  999.0,  999.0,   20.3,   17.5,   13.6,   11.5,    8.5,    5.6,    3.4,    2.1,    0.6,    0.7,    0.5,    0.5,    0.6,    0.7,    0.8,    0.6,    0.7,    0.6,    0.8,    0.5,    0.6,    0.9
2000/10/19 11:50,  -12.2,  -13.9,   -1.7,  -22.7,   18.4,    5.5,   41.9,   14.2,   -2.9,   10.4,    4.4,  -21.3,   10.0,   -0.0,   14.0,   10.7,    8.2,   -7.3,   -1.1,    2.6,   -8.7,  -10.9,    3.7,   21.4,  999.0,   41.8,   41.9,   41.8,   41.7,   41.6,    0.7,   41.7,    0.5,   21.5,    1.2,    1.2,   21.5,   41.8,   20.1,   19.4,   21.3,   18.0,   21.0,   16.5,   13.0,    8.1,    0.1,    1.0,    9.3,   13.6,   10.7,    6.4,    0.9,    0.7,    0.5,    0.6,    1.2,    0.6
2000/10/19 12:00,    8.9,   -0.9,   20.6,   -1.2,   10.0,   10.1,   -0.6,   20.6,   -1.0,   20.7,   -0.4,   -1.1,   -0.5,  999.0,   -0.9,   -1.1,    9.6,   20.8,   -0.4,   10.2,   20.7,   20.8,   -0.5,   42.2,   20.4,   -0.4,   42.1,   20.7,   20.5,  999.0,   20.5,   41.4,   31.2,   42.2,   41.8,   41.9,   41.8,   41.5,   41.5,   41.7,   41.7,   41.7,   41.7,   41.9,   42.0,   41.7,   39.8,   35.0,   26.9,   32.4,    9.3,   18.1,    3.2,   21.4,   21.9,   40.9,    1.0,    1.0
2000/10/19 12:10,   41.9,   42.1,   41.9,   41.5,   41.6,   42.0,   42.1,   42.0,   42.1,   42.1,   42.3,   42.0,   41.8,   42.0,   42.7,   42.1,   42.5,   42.0,   41.6,   42.0,   41.9,   41.9,   42.2,   42.0,   42.0,   42.0,   41.9,   41.9,   41.9,   41.5,   41.9,   42.1,   42.0,   41.7,   42.1,   42.1,   41.8,   42.0,   41.7,   41.8,   42.2,   41.8,   41.8,   41.5,   41.9,   41.8,   41.7,   41.9,   42.0,  999.0,   42.1,  999.0,   43.0,   42.3,  999.0,  999.0,   42.4,  999.0
2000/10/19 12:20,   -6.4,  -13.2,    1.1,  -13.5,  -13.3,    0.8,    0.7,    0.9,    0.9,  -10.2,  -10.0,    0.7,  -13.5,  -13.6,  -20.3,   -6.2,   -5.3,   14.2,    8.7,    4.9,   14.5,    0.4,   41.9,   21.5,    0.2,   21.5,   21.4,   21.5,    0.6,   -0.1,   21.7,   21.3,   14.2,   21.0,    0.3,    7.6,   14.4,   -0.4,   14.3,   14.6,    1.3,  -42.3,   14.5,  -20.7,    0.4,  999.0,   21.5,   14.2,    0.7,   20.1,   -9.9,   12.7,   14.4,   14.7,   21.6,   21.2,    1.0,   14.6
2000/10/19 12:30,   28.0,   12.0,   29.5,   39.7,   22.7,   26.0,   20.5,   30.6,   34.1,   30.8,   31.4,   38.6,   34.7,   41.8,   41.8,   41.7,   42.0,   34.9,   40.0,   36.6,   34.8,   40.6,   42.0,   22.0,   34.6,   41.1,   31.0,   20.1,   34.6,   38.7,   21.0,   38.0,   21.1,  999.0,   42.2,   33.9,   37.2,   20.3,   29.5,   33.1,   31.1,   31.0,   41.7,   41.9,   38.9,   35.5,   42.1,   41.9,   31.2,   41.9,   41.5,   41.6,   41.9,   42.0,   42.0,   41.8,   42.0,   41.8
2000/10/19 12:40,   28.0,   -0.8,   42.1,   42.3,  999.0,   42.1,   -0.7,   31.5,   20.6,   13.1,   20.5,   20.4,   13.5,   10.6,    9.9,   -0.6,   -0.3,    0.1,   -0.1,   23.0,    4.7,   10.9,   20.7,    1.8,   30.8,   12.3,   31.0,   38.9,   41.6,   11.4,   -1.5,    0.0,   42.2,   -1.1,   20.6,   20.6,  999.0,   -0.8,    6.8,   25.0,   26.5,  999.0,   42.2,   31.8,  999.0,  999.0,   41.6,   31.1,   -0.7,   -0.6,   23.6,    9.9,  999.0,   42.4,  999.0,   41.4,  999.0,   41.8
2000/10/19 12:50,   14.5,  999.0,   37.1,   41.8,   41.8,   42.0,   26.3,   24.9,   41.4,   22.9,   21.4,   20.2,   21.3,   42.2,   21.5,   21.2,   41.6,   41.7,   14.3,  999.0,   14.7,   42.3,   14.6,   42.0,   42.2,   24.6,   31.6,   42.4,   14.6,   21.6,   42.1,   14.9,   42.0,   19.9,   31.6,   35.0,   21.2,    8.1,   13.1,   21.3,   16.7,   42.0,   41.8,   24.2,    9.2,   28.7,  999.0,   36.0,   20.2,    0.6,   42.2,   35.3,  999.0,    4.8,   31.6,   21.8,  -41.4,   41.3
2000/10/19 13:00,   -6.6,    3.3,    0.3,    0.4,    0.4,    0.3,    0.9,   14.2,   21.1,   41.9,   20.9,    0.0,  -20.5,   42.2,   -2.6,  -20.6,   22.0,  -20.8,   -3.5,   34.5,    0.6,   -2.0,  -19.6,    0.7,   22.0,  -41.9,    0.0,   -0.1,  -41.6,  999.0,   -2.8,   -0.2,   25.0,  999.0,   -0.1,   -0.1,   -0.1,  -13.0,  999.0,  999.0,   -5.2,   24.9,   21.2,  -42.1,   41.3,   -0.3,   41.0,   41.6,   42.1,   -0.2,   -2.0,  999.0,  -41.5,   42.2,  999.0,  999.0,  -42.1,  999.0
2000/10/19 13:10,   41.8,   42.6,   41.9,   41.4,   42.0,   41.7,   20.8,   27.9,   41.6,   41.9,   41.7,   41.8,   41.9,   42.0,   41.9,   20.4,   18.8,   23.1,   19.7,   16.6,   14.7,    4.2,   13.1,   31.1,   28.0,    2.5,  -20.2,    3.8,    0.2,   40.7,   42.0,   14.1,   -3.1,   36.1,    7.7,   24.2,    4.7,   31.6,   38.0,   35.6,   24.2,   28.2,   28.4,   31.3,   23.9,   28.3,   28.0,   26.7,   21.6,   17.8,   17.9,   41.9,   40.6,   22.0,   27.1,   14.8,   21.5,   21.9
2000/10/19 13:20,    7.6,    5.0,    2.5,    0.3,    0.8,   10.8,    7.1,    0.8,    0.7,    1.3,    0.7,    4.3,    0.6,   20.8,    0.6,   16.9,   17.9,    0.7,   15.5,    6.1,    8.5,   16.1,   12.6,   19.0,    0.7,   14.6,   14.5,   14.6,   14.3,   14.4,    0.7,   10.8,   21.2,   14.6,   10.4,   -8.6,   10.6,  -20.7,    4.6,    4.8,  -10.3,  -20.1,  -13.4,    0.7,  -13.6,    0.7,    0.6,    0.6,    0.2,  -20.7,  -20.8,    0.4,   -6.4,    1.3,  -31.3,   -6.3,    0.3,    0.7
2000/10/19 13:30,    7.6,    2.2,    0.5,    6.2,   12.9,   13.5,    0.1,  999.0,    0.7,    7.2,    5.2,    6.3,    4.2,   10.3,    8.7,    0.9,    0.9,    4.1,   15.4,    2.4,   10.7,    6.2,    0.7,    2.0,   21.0,   20.9,    0.7,   10.9,    1.0,   19.2,   21.4,    8.6,   10.8,    3.3,    5.7,    0.4,   11.0,   10.9,   11.0,   11.1,   10.5,    0.1,    4.2,  999.0,    9.3,    7.6,    7.7,    7.7,    6.9,    0.8,    0.8,    0.4,    0.6,    0.4,    0.6,    0.7,    0.5,    0.5
2000/10/19 13:40,   11.0,   12.3,    1.2,    0.8,    0.4,   -4.8,   -2.0,    0.4,   -7.0,    0.8,    0.8,    0.8,    0.8,    1.0,    0.2,    0.4,    0.4,   -0.0,    0.3,    0.1,    0.4,    0.7,   -0.0,    0.8,   -0.2,    0.4,    0.0,    0.3,   -0.2,    0.3,    0.9,   -6.6,   -2.3,   -6.7,   -6.8,  -20.6,  -10.7,   -7.2,  -18.2,    0.4,   -6.9,   -6.7,    0.5,    0.3,  -14.2,   -9.7,   -0.1,    2.1,   -2.2,    7.8,   -7.1,  -22.5,    7.7,  -10.2,  -20.5,   -0.3,  -20.2,   -1.6
2000/10/19 13:50,  -21.3,   41.3,   -3.8,  -33.1,  -21.5,  -12.1,   -6.4,   -2.7,  -17.5,  -21.3,  999.0,  999.0,  -21.3,   15.2,   -4.0,   -3.4,   -4.7,   -0.9,   20.3,  -10.7,   -0.7,   -0.6,   13.8,   -0.9,   -0.5,   -0.8,   -0.8,   -0.6,   -0.7,   13.6,   13.5,   13.5,   13.9,   -6.1,   -0.7,   -2.7,  999.0,  -11.0,   -3.7,    2.4,   -0.7,  -31.9,   -0.8,  -12.4,    9.9,  -14.4,   35.0,  -17.9,  -28.0,  -21.2,  -40.9,  -37.1,  -22.0,  -19.8,  999.0,  -14.7,  -21.4,  -14.8
2000/10/19 14:00,  -21.3,  999.0,  -39.9,  -22.6,   17.6,   -3.2,  -13.9,   -5.1,   35.3,   -9.8,  -14.2,  -21.2,  -11.1,  -17.1,  -15.0,   -3.0,    4.2,   -0.3,   -5.0,    8.6,  -13.0,    1.5,   10.6,  999.0,    6.5,  -13.8,   -7.0,   -7.4,    6.9,   -3.2,   -0.9,    4.1,    1.8,   -1.9,   -4.8,   14.9,   -3.5,   20.7,   17.5,   25.1,  999.0,   17.2,   36.7,   14.7,    6.8,   -0.2,    3.5,    2.4,    6.9,   14.3,   23.0,   22.3,    3.1,    5.6,   21.4,   -6.5,   -4.4,    8.9
2000/10/19 14:10,  -31.6,  -40.0,   -7.9,  -17.1,   -5.1,    8.0,   -6.9,  -16.0,   -3.8,    1.7,  999.0,  -41.7,  999.0,  -22.0,   -2.8,  -20.3,  -25.1,  -33.8,  -27.4,    3.1,   -6.6,    4.3,   19.9,  -23.8,  -18.7,   10.8,  -10.2,    0.8,   -6.2,   -5.6,  -14.0,  -20.8,   -6.7,    0.8,  -22.1,    0.7,    1.0,    0.7,    1.0,    0.7,   -9.7,   -9.8,  -20.6,    0.7,   -9.6,  -21.4,   -0.1,    0.6,  -20.7,  999.0,  999.0,    0.2,    0.4,    0.7,  -20.7,  -20.5,    0.8,    0.7
